Flag Weather past 2 weeks in Târgu Mureş, Romania

Now
23 °F

Ice fog.


Feels Like: 23 °F
Forecast: 23 / 38 °F
Wind: 2 mph from North

Location: Tirgu Mures Airport

Current Time: Nov 27, 2014 at 10:48:23 AM

Latest Report: Nov 27, 2014 at 10:00 AM


Visibility: 0 mi

Pressure: 30.21 "Hg

Humidity: 93%

Dew point: 21 °F

Location of Târgu MureşLocation

Historic Weather in Târgu Mureş — Graph

°F

Târgu Mureş temperature yesterday

Maximum temperature yesterday: 30 °F (at 1:00 PM)
Minimum temperature yesterday: 19 °F (at 5:30 AM)
Average temperature yesterday: 26 °F

Past Weeks' High & Low Weather Summary

 TemperatureHumidityPressure
High63 °F (Nov 16, 3:30 PM)100% (Nov 13, 5:00 AM)30.45 "Hg (Nov 13, 5:00 AM)
Low19 °F (Nov 26, 5:30 AM)34% (Nov 16, 3:30 PM)29.89 "Hg (Nov 16, 2:00 PM)
Average41 °F87%30.12 "Hg
* Reported Nov 12 9:00 AM — Nov 27 9:30 AM, Târgu Mureş, Weather by CustomWeather, © 2014

Note: Actual official high and low records may vary slightly from our data, if they occured in-between our weather recording intervals... More about our weather records

Advertising

Târgu Mureş weather history for previous 24 hours

 ConditionsComfort  
Time TempWeatherWind HumidityBarometerVisibility
9:30 AM
Nov 27
23 °FIce fog.2 mph93%30.21 "Hg0 mi
9:00 AM23 °FIce fog.2 mph93%30.21 "Hg0 mi
8:30 AM23 °FIce fog.2 mph93%30.21 "Hg0 mi
8:00 AM23 °FIce fog.2 mph93%30.21 "Hg0 mi
7:30 AM23 °FIce fog.2 mph100%30.21 "Hg0 mi
7:00 AM23 °FIce fog.2 mph100%30.21 "Hg0 mi
6:30 AM23 °FIce fog.No wind100%30.21 "Hg0 mi
6:00 AM23 °FIce fog.2 mph100%30.21 "Hg0 mi
5:30 AM23 °FIce fog.2 mph100%30.21 "Hg0 mi
5:00 AM23 °FIce fog.2 mph100%30.21 "Hg0 mi
4:00 AM23 °FIce fog.2 mph100%30.21 "Hg0 mi
3:00 AM25 °FIce fog.2 mph93%30.21 "Hg0 mi
2:00 AM25 °FIce fog.2 mph100%30.21 "Hg0 mi
1:00 AM25 °FIce fog.2 mph100%30.24 "Hg0 mi
12:00 AM25 °FIce fog.2 mph100%30.24 "Hg0 mi
11:00 PM
Nov 26
25 °FIce fog.2 mph100%30.24 "Hg0 mi
10:00 PM25 °FIce fog.2 mph100%30.24 "Hg0 mi
9:00 PM27 °FIce fog.2 mph93%30.24 "Hg0 mi
8:30 PM27 °FIce fog.2 mph100%30.24 "Hg0 mi
8:00 PM27 °FIce fog.5 mph100%30.24 "Hg0 mi
7:30 PM27 °FIce fog.5 mph100%30.24 "Hg0 mi
7:00 PM27 °FIce fog.5 mph100%30.24 "Hg0 mi
6:30 PM27 °FIce fog.5 mph100%30.24 "Hg0 mi
6:00 PM27 °FIce fog.5 mph100%30.24 "Hg0 mi
5:30 PM27 °FIce fog.5 mph100%30.24 "Hg0 mi
5:00 PM28 °FIce fog.5 mph100%30.24 "Hg0 mi
4:30 PM28 °FIce fog.5 mph100%30.24 "Hg0 mi
4:00 PM28 °FIce fog.5 mph100%30.24 "Hg0 mi
3:30 PM28 °FIce fog.5 mph100%30.24 "Hg0 mi
3:00 PM30 °FIce fog.5 mph93%30.24 "Hg1 mi
2:30 PM30 °FIce fog.5 mph93%30.24 "Hg1 mi
2:00 PM30 °FIce fog.5 mph100%30.24 "Hg1 mi
1:30 PM30 °FIce fog.5 mph100%30.27 "Hg1 mi
1:00 PM30 °FIce fog.5 mph93%30.27 "Hg1 mi
12:30 PM28 °FIce fog.5 mph100%30.27 "Hg1 mi
12:00 PM28 °FIce fog.5 mph100%30.27 "Hg1 mi
11:30 AM28 °FIce fog.2 mph100%30.30 "Hg1 mi
11:00 AM28 °FIce fog.2 mph93%30.30 "Hg1 mi
10:30 AM28 °FIce fog.2 mph93%30.30 "Hg1 mi
10:00 AM27 °FChilly.2 mph93%30.30 "Hg1 mi
Weather by CustomWeather, © 2014

See weather overviewHow to use our weather pages